Location: ?????????
(38.0736°N, 23.2119°E)
Time: 14:12:48
(UTC+00:00)

Cosmos 2263 Rocket - Pass Details

Date: 18 April 2024
Orbit: 824 x 847 km, 71.0° (Epoch: 17 May)

Event Time Altitude Azimuth Distance (km) Brightness Sun altitude
Rises 21:00:58 0° 339° (NNW) 3,385 6.3 -36.8°
Reaches altitude 10° 21:03:26 10° 340° (NNW) 2,444 5.3 -37.0°
Enters shadow 21:06:14 31° 345° (NNW) 1,433 3.8 -37.3°
